Wind_Speed
14 13 14 12 7 4 3 4 7 5 7 2 4 4 29 25 26 28 25 22 17 17 14 13 13 13 15 16 17 17 13 11 13 18 18 17 14 12 10 12 12 13 12 14
11 13 13 11 9 6 5 2 5 6 6 4 1 6 7 22 25 31 23 23 19 18 16 16 12 13 11 13 15 18 14 12 15 18 19 17 16 11 10 11 11 14 13 13
11 10 10 11 11 10 8 5 3 2 2 3 3 5 3 7 18 28 31 23 22 19 19 18 13 11 14 11 14 16 15 16 18 20 22 17 16 13 11 9 10 12 13 14
8 7 11 10 11 11 12 7 4 3 4 6 4 3 3 9 12 31 31 24 23 24 21 18 16 11 12 12 14 18 17 17 18 18 19 18 15 13 12 12 11 10 13 16
6 9 8 10 13 12 9 5 8 6 5 6 4 5 3 4 9 25 36 30 23 23 24 22 18 15 12 14 14 18 18 18 18 18 18 17 18 16 14 14 11 12 11 15
5 7 9 8 9 11 9 7 7 7 7 11 3 6 2 6 10 13 32 33 26 27 25 23 20 18 17 17 15 18 18 18 18 19 20 20 18 18 16 15 12 12 12 13
5 8 9 9 6 10 12 12 10 10 8 4 3 5 3 2 7 13 14 25 34 30 28 26 25 23 19 17 16 16 18 18 20 20 20 19 20 20 17 15 13 13 12 12
4 12 12 10 11 9 15 16 12 7 4 3 3 4 3 9 8 13 14 14 34 34 30 29 27 22 17 13 13 16 17 19 18 19 20 19 19 18 19 18 17 16 15 14
3 5 10 7 11 11 13 16 11 11 5 6 2 7 9 2 5 7 9 18 30 43 33 32 28 25 20 14 11 11 15 18 19 18 19 19 19 20 21 19 17 17 17 16
2 6 8 5 8 11 13 7 14 15 5 5 5 4 8 3 2 7 11 11 26 37 34 32 30 27 25 19 14 12 14 16 17 19 19 19 18 18 19 18 17 18 18 17
4 6 8 5 9 9 10 13 16 8 14 1 4 4 5 4 7 7 9 8 23 37 40 36 33 31 26 22 19 14 14 12 18 20 19 17 17 17 18 17 17 17 17 17
6 7 12 9 5 8 12 13 19 17 13 9 6 3 6 8 7 8 11 10 19 35 30 38 38 33 30 27 23 18 14 14 14 18 19 18 19 18 17 16 17 17 16 16
4 7 12 16 12 10 10 11 14 15 20 12 8 2 6 6 3 12 13 9 13 20 32 34 34 34 31 29 26 21 17 15 13 15 17 18 18 19 18 17 17 18 17 17
6 9 11 18 6 5 8 10 10 16 19 17 15 17 9 9 8 15 12 6 3 4 14 20 36 35 32 30 28 24 21 17 16 13 14 14 15 15 16 17 18 18 19 18
6 12 11 14 13 11 10 11 11 14 16 13 6 16 13 11 10 13 16 10 8 9 14 16 27 35 36 32 30 29 26 21 18 14 14 11 11 13 15 17 19 20 20 20
5 8 9 14 13 14 17 16 14 13 12 14 12 14 17 19 12 12 12 15 11 9 19 17 20 32 34 34 31 29 31 27 23 20 18 17 16 16 16 16 17 20 19 21
10 10 9 13 5 10 16 20 19 17 13 12 12 9 12 15 15 14 14 14 11 8 12 14 20 36 40 37 34 32 33 30 27 24 22 22 21 20 22 22 21 21 21 22
10 8 10 13 9 11 7 10 15 16 16 13 15 18 16 15 16 14 15 15 10 5 9 10 17 26 38 43 39 35 33 34 32 30 28 25 26 25 29 28 29 32 30 30
10 9 11 11 15 12 11 10 11 14 16 15 13 17 16 15 15 14 15 18 11 6 8 12 14 22 23 29 35 34 36 30 33 24 24 21 25 29 32 36 37 38 38 35
7 9 11 12 9 8 2 3 13 10 17 16 16 18 15 16 8 15 13 16 15 12 10 16 23 23 26 30 32 27 25 26 26 27 27 25 28 29 24 39 36 44 39 35
5 7 12 13 12 13 9 15 12 10 7 11 17 11 10 8 12 12 13 12 13 13 15 14 19 24 25 28 30 30 29 29 27 27 33 30 31 26 33 30 35 31 38 31
8 7 8 6 9 12 11 13 9 10 14 14 15 12 9 8 7 5 8 13 11 8 8 13 16 20 24 24 26 25 24 25 26 28 26 29 24 19 21 10 16 9 27 29
8 8 7 7 8 13 16 12 14 11 11 11 17 17 11 4 5 5 4 10 12 11 10 7 8 12 16 18 20 15 14 17 18 16 15 19 11 18 15 12 15 14 5 9
12 13 11 12 8 13 17 16 19 12 12 7 9 14 9 6 7 2 5 7 7 8 9 10 10 10 11 15 13 10 7 6 10 15 12 11 14 19 17 14 7 16 13 14
13 12 12 14 14 13 16 15 15 16 17 15 13 11 17 10 9 10 6 4 4 5 6 6 9 11 11 11 10 10 10 10 12 12 11 13 12 7 9 5 8 8 7 11
18 16 14 13 10 10 11 9 9 11 11 15 14 13 12 13 10 8 8 7 6 6 5 6 6 7 9 11 12 11 10 10 11 12 10 8 9 10 9 7 8 10 13 13
Wind_Direction
180 189 199 205 198 182 168 110 87 78 77 77 165 124 186 196 189 183 191 190 186 182 181 175 167 167 175 177 176 173 174 172 174 178 176 178 174 170 175 175 165 171 161 159
180 198 198 189 182 173 179 147 102 89 62 75 259 181 207 220 205 191 199 196 197 192 192 188 171 173 170 172 180 177 173 163 169 172 176 182 183 180 180 179 181 179 167 166
191 198 198 192 203 208 218 242 217 334 118 77 32 196 165 268 221 202 197 208 202 196 197 196 180 180 175 171 180 183 177 168 170 173 175 180 183 188 184 179 184 188 191 176
192 208 198 205 213 219 243 233 213 175 281 5 350 289 278 286 214 207 201 202 206 199 199 199 195 187 186 178 186 185 186 180 175 177 182 181 177 181 193 193 199 193 188 187
168 196 185 215 223 228 253 238 218 229 272 296 331 277 239 263 221 216 206 206 207 205 205 204 205 199 192 192 188 188 186 191 184 179 181 178 183 191 196 199 199 203 196 198
211 195 198 221 217 218 223 200 201 245 266 249 273 300 260 235 230 202 213 212 207 200 207 201 197 199 198 197 190 193 196 192 190 177 180 184 190 192 197 196 200 202 206 205
202 208 210 213 196 190 187 191 198 225 207 296 213 268 19 288 237 205 207 224 212 203 199 200 197 197 196 203 199 191 196 194 189 185 182 185 193 193 195 200 206 209 207 207
240 189 200 208 204 205 208 219 253 247 233 229 232 244 55 323 238 225 215 247 211 202 197 204 196 192 188 192 205 199 194 198 195 191 187 186 189 200 203 201 208 210 213 215
269 208 192 203 215 196 196 224 244 268 211 282 158 262 269 23 168 187 237 232 203 201 201 199 196 200 203 192 188 189 193 193 196 195 192 190 194 201 205 211 214 214 215 222
335 256 184 205 210 228 217 244 221 233 222 228 105 282 294 227 127 204 345 235 214 203 198 199 200 197 205 201 196 197 196 198 197 199 204 203 200 202 206 210 213 213 220 225
272 252 179 223 218 224 212 226 232 210 265 139 216 71 267 287 238 219 351 299 208 205 204 202 203 196 196 208 211 205 206 204 206 204 204 207 206 207 211 214 217 223 228 234
262 260 257 232 226 245 233 244 223 239 238 237 312 276 241 308 241 204 40 34 187 186 204 202 203 203 206 207 211 210 216 223 216 210 210 211 213 217 220 221 221 225 228 228
269 251 260 238 229 242 232 231 235 252 269 259 273 231 240 335 205 208 213 21 112 193 206 204 206 207 209 208 208 210 213 212 212 218 219 220 219 220 224 227 231 232 232 234
266 260 261 279 324 320 212 225 234 237 246 250 231 255 285 273 234 224 231 222 347 222 208 217 211 211 209 210 211 210 212 212 215 220 223 223 228 230 228 228 232 235 239 243
252 262 266 266 270 267 251 246 238 241 248 267 290 245 247 250 242 222 221 227 245 236 227 209 218 206 210 212 216 215 214 215 216 217 215 216 225 230 237 244 245 245 246 247
268 275 272 276 262 255 252 241 238 241 245 249 257 268 256 266 262 244 244 240 251 253 230 233 203 200 199 203 205 212 214 215 218 218 216 223 232 236 244 250 255 250 249 252
269 272 278 277 267 261 249 239 236 241 242 243 254 250 274 276 268 264 261 233 249 274 222 232 223 202 199 199 203 211 211 213 215 222 226 233 238 245 252 256 260 256 259 259
257 259 265 269 272 243 248 224 225 233 239 253 261 264 264 272 266 256 245 229 234 244 223 219 220 212 198 192 196 214 216 210 217 227 235 235 239 250 257 259 262 264 261 261
241 250 271 262 256 255 268 270 241 237 245 247 252 264 250 256 265 255 241 226 218 217 194 195 194 186 190 199 205 216 212 218 219 238 241 253 254 254 259 262 261 260 262 256
268 261 249 259 275 267 262 236 253 254 255 247 243 253 244 240 245 256 224 220 226 221 202 190 192 193 188 194 207 223 228 231 232 238 244 254 264 271 282 260 272 263 263 266
255 264 257 261 250 266 258 263 279 240 233 228 227 233 230 221 222 240 225 218 227 225 211 207 202 208 212 212 214 226 230 235 244 248 252 260 263 275 274 262 253 255 260 261
264 268 257 265 263 264 260 263 248 251 251 258 217 214 210 192 195 215 216 204 203 209 200 201 214 217 222 226 234 235 236 243 248 248 252 256 260 273 261 236 235 268 257 249
258 241 275 256 271 283 282 265 259 237 250 256 214 213 211 182 186 193 156 188 198 200 209 200 201 206 215 215 219 230 239 246 241 230 235 229 247 265 264 270 267 260 344 200
261 264 263 277 288 282 290 276 254 237 226 228 213 208 207 236 211 219 124 122 143 175 187 203 195 194 185 176 185 206 202 198 205 216 223 252 265 274 241 271 257 225 264 242
257 256 263 276 288 289 293 271 248 228 223 232 230 228 228 228 224 242 223 201 128 137 167 205 215 214 205 207 214 226 237 247 253 255 245 243 261 245 264 201 245 274 258 231
255 251 252 271 285 287 276 244 223 208 207 214 211 198 195 197 184 189 193 193 175 173 165 194 210 216 201 212 223 231 238 250 255 249 242 241 239 248 280 269 285 259 253 258
Height
3168 3173 3173 3175 3176 3176 3178 3179 3179 3180 3179 3179 3178 3179 3182 3183 3187 3190 3197 3201 3203 3206 3208 3208 3208 3209 3210 3211 3212 3215 3218 3219 3221 3225 3228 3231 3232 3235 3236 3238 3240 3241 3243 3245
3170 3170 3172 3174 3176 3177 3178 3179 3180 3179 3179 3181 3179 3180 3183 3182 3183 3188 3192 3197 3201 3205 3207 3207 3208 3208 3210 3211 3212 3214 3216 3219 3221 3224 3227 3230 3232 3235 3237 3239 3241 3242 3244 3246
3169 3170 3171 3174 3175 3177 3177 3178 3179 3180 3179 3179 3179 3180 3178 3179 3178 3182 3188 3194 3198 3203 3206 3206 3206 3208 3209 3210 3212 3214 3217 3219 3221 3223 3226 3229 3231 3234 3237 3239 3241 3243 3245 3247
3169 3169 3171 3173 3175 3176 3175 3177 3179 3179 3179 3177 3179 3178 3176 3175 3176 3180 3184 3190 3194 3199 3204 3207 3206 3207 3208 3210 3211 3214 3216 3218 3220 3224 3225 3228 3231 3234 3236 3239 3241 3243 3244 3246
3168 3169 3171 3172 3173 3175 3175 3176 3179 3179 3178 3179 3177 3175 3173 3173 3172 3173 3180 3185 3191 3197 3202 3205 3207 3206 3207 3209 3210 3212 3215 3217 3219 3222 3225 3228 3230 3233 3235 3237 3240 3243 3244 3246
3167 3167 3170 3171 3170 3172 3174 3176 3177 3178 3178 3173 3175 3174 3169 3170 3172 3174 3176 3182 3187 3194 3199 3202 3205 3206 3206 3208 3209 3211 3213 3216 3218 3220 3223 3226 3229 3232 3235 3237 3239 3242 3244 3245
3165 3167 3168 3168 3171 3171 3173 3175 3171 3170 3169 3165 3172 3173 3169 3169 3169 3172 3173 3177 3182 3187 3195 3198 3201 3203 3204 3206 3208 3210 3212 3214 3217 3219 3221 3224 3227 3230 3233 3236 3238 3240 3243 3245
3161 3162 3166 3166 3168 3170 3171 3171 3167 3163 3158 3165 3171 3166 3166 3166 3166 3169 3172 3172 3176 3182 3189 3195 3197 3199 3202 3204 3206 3209 3211 3213 3216 3219 3221 3223 3225 3229 3231 3234 3236 3239 3241 3243
3161 3161 3164 3165 3167 3169 3168 3170 3169 3169 3163 3164 3163 3166 3165 3165 3165 3168 3169 3168 3168 3175 3184 3190 3194 3197 3200 3203 3205 3207 3209 3212 3215 3217 3220 3222 3223 3226 3229 3231 3234 3237 3238 3240
3165 3162 3163 3164 3165 3166 3166 3167 3168 3164 3163 3158 3161 3164 3162 3163 3164 3165 3164 3164 3165 3172 3179 3186 3190 3194 3198 3201 3204 3206 3208 3210 3213 3216 3218 3220 3222 3225 3226 3228 3231 3233 3235 3238
3164 3164 3161 3163 3162 3159 3164 3164 3164 3161 3163 3159 3152 3159 3161 3160 3159 3159 3158 3155 3160 3164 3173 3180 3186 3191 3195 3199 3202 3205 3207 3209 3211 3213 3216 3219 3221 3223 3225 3227 3229 3232 3234 3236
3163 3161 3159 3157 3158 3160 3160 3158 3158 3156 3157 3155 3157 3158 3158 3157 3156 3156 3155 3152 3152 3161 3173 3176 3183 3188 3191 3196 3199 3202 3205 3207 3209 3211 3214 3216 3218 3220 3223 3226 3228 3229 3231 3233
3162 3160 3158 3156 3158 3158 3158 3158 3158 3156 3152 3153 3153 3156 3157 3155 3155 3155 3155 3154 3152 3159 3166 3172 3178 3183 3187 3192 3196 3200 3203 3205 3207 3209 3212 3214 3217 3219 3221 3224 3226 3228 3230 3232
3159 3159 3158 3151 3156 3156 3153 3156 3157 3156 3153 3150 3152 3155 3156 3155 3155 3154 3154 3154 3156 3158 3161 3165 3170 3178 3183 3188 3193 3197 3200 3202 3205 3207 3210 3212 3215 3217 3219 3221 3223 3225 3227 3229
3159 3157 3156 3155 3154 3155 3155 3154 3155 3155 3152 3153 3151 3153 3155 3153 3155 3153 3153 3154 3153 3153 3155 3159 3162 3170 3177 3183 3189 3193 3197 3200 3202 3204 3207 3210 3212 3214 3216 3218 3220 3222 3224 3225
3156 3155 3154 3153 3152 3151 3151 3153 3154 3153 3153 3154 3153 3151 3149 3149 3150 3151 3151 3151 3151 3151 3151 3152 3156 3162 3170 3177 3183 3188 3192 3196 3199 3202 3204 3207 3209 3211 3213 3215 3216 3218 3219 3221
3154 3153 3152 3149 3149 3150 3149 3148 3149 3150 3151 3151 3150 3150 3147 3145 3146 3147 3148 3148 3148 3148 3148 3150 3151 3154 3161 3170 3178 3182 3186 3191 3195 3198 3200 3203 3204 3207 3208 3210 3212 3213 3215 3215
3151 3151 3150 3148 3147 3145 3142 3142 3145 3146 3147 3147 3146 3144 3144 3142 3143 3144 3145 3146 3146 3146 3146 3147 3148 3151 3155 3161 3170 3175 3179 3184 3189 3192 3193 3196 3198 3201 3201 3204 3205 3206 3208 3209
3147 3148 3147 3146 3141 3140 3141 3141 3143 3143 3144 3143 3143 3140 3140 3140 3140 3140 3141 3143 3144 3144 3145 3146 3148 3150 3153 3155 3164 3170 3176 3179 3184 3186 3190 3191 3194 3195 3197 3197 3197 3198 3200 3199
3144 3144 3146 3142 3142 3139 3137 3137 3138 3139 3139 3140 3139 3137 3137 3137 3139 3138 3138 3140 3141 3143 3144 3146 3148 3151 3154 3158 3162 3168 3171 3175 3179 3183 3184 3186 3187 3189 3188 3188 3187 3188 3188 3185
3142 3142 3141 3137 3139 3137 3135 3135 3136 3138 3138 3134 3135 3135 3134 3135 3135 3135 3136 3138 3139 3140 3143 3144 3147 3151 3154 3157 3160 3164 3168 3171 3172 3176 3177 3179 3180 3180 3177 3176 3175 3176 3178 3181
3139 3138 3135 3136 3135 3134 3131 3133 3136 3133 3132 3131 3132 3133 3132 3133 3132 3133 3135 3136 3139 3140 3140 3143 3145 3147 3151 3155 3157 3159 3163 3166 3167 3169 3171 3173 3174 3174 3173 3168 3168 3169 3167 3172
3137 3136 3134 3135 3132 3130 3129 3129 3128 3128 3129 3127 3129 3129 3131 3133 3133 3134 3134 3134 3138 3140 3140 3142 3144 3145 3148 3150 3153 3156 3159 3161 3162 3164 3167 3169 3169 3170 3171 3169 3166 3168 3167 3167
3131 3130 3131 3130 3128 3126 3124 3123 3123 3125 3126 3127 3127 3129 3130 3131 3132 3133 3133 3134 3136 3137 3140 3143 3144 3146 3147 3150 3153 3156 3158 3159 3160 3163 3164 3165 3166 3166 3165 3166 3166 3168 3167 3170
3128 3126 3127 3126 3124 3121 3119 3118 3119 3121 3123 3125 3125 3126 3128 3130 3131 3133 3133 3134 3135 3137 3138 3141 3144 3145 3147 3150 3151 3153 3155 3157 3159 3160 3161 3162 3163 3162 3163 3162 3166 3167 3168 3170
3121 3123 3123 3122 3120 3119 3118 3116 3117 3118 3120 3122 3123 3124 3125 3128 3130 3131 3131 3132 3135 3136 3138 3140 3142 3144 3145 3146 3149 3150 3152 3154 3156 3157 3158 3159 3160 3161 3162 3163 3164 3165 3167 3167